Montpelier, VT

12:23 AM EST on December 15, 2017 (GMT -0500)
Knapp State

Weather History for KMPV - January, 2012

Change the Weather History Date:

Friday, January 13, 2012

  Actual Average Record
Temperature  
Mean Temperature 29 °F 16 °F  
Max Temperature 34 °F 26 °F 54 °F (1995)
Min Temperature 23 °F 7 °F -24 °F (1957)
Degree Days  
Heating Degree Days 36 49  
Month to date heating degree days 544 625  
Since 1 July heating degree days 3128 3773  
Cooling Degree Days 0 0  
Month to date cooling degree days 0  
Year to date cooling degree days 0  
Moisture  
Dew Point 26 °F    
Average Humidity 83    
Maximum Humidity 92    
Minimum Humidity 74    
Precipitation  
Precipitation 0.17 in 0.07 in 0.56 in (1993)
Month to date precipitation 0.68 0.95  
Year to date precipitation 0.68 0.95  
Sea Level Pressure  
Sea Level Pressure 29.25 in    
Wind  
Wind Speed 8 mph (SSW)    
Max Wind Speed 22 mph    
Max Gust Speed 33 mph    
Visibility 4 miles    
Events Fog , Rain , Snow    
T = Trace of Precipitation, MM = Missing Value Source: NWS Daily Summary

Daily Weather History Graph

Daily Weather History Graph

Search for Another Location

Airport or City:

Trip Planner

Search our weather history database for the weather conditions in past years. The results will help you decide how hot, cold, wet, or windy it might be!

Date:

Astronomy

Jan. 13, 2012 Rise Set
Actual Time 7:23 AM EST 4:34 PM EST
Civil Twilight 6:51 AM EST 5:06 PM EST
Nautical Twilight 6:15 AM EST 5:42 PM EST
Astronomical Twilight 5:40 AM EST 6:17 PM EST
Moon 9:57 PM EST (1/13) 9:24 AM EST (1/13)
Length of Visible Light 10h 15m
Length of Day
9h 10m
Waning Gibbous, 79% of the Moon is Illuminated
Jan 13
Waning Gibbous
Jan 16
Last Quarter
Jan 23
New
Jan 30
First Quarter
Feb 7
Full

Hourly Weather History & Observations

Time (EST) Temp. Windchill Dew Point Humidity Pressure Visibility Wind Dir Wind Speed Gust Speed Precip Events Conditions
12:09 AM 30.2 °F 21.9 °F 28.4 °F 93% 29.50 in 6.0 mi South 9.2 mph - N/A   Overcast
12:16 AM 30.2 °F 23.4 °F 28.4 °F 93% 29.49 in 6.0 mi South 6.9 mph - N/A   Overcast
12:34 AM 30.2 °F 23.4 °F 28.4 °F 93% 29.49 in 6.0 mi South 6.9 mph - N/A   Overcast
12:51 AM 30.0 °F 23.2 °F 28.0 °F 92% 29.54 in 5.0 mi South 6.9 mph - N/A   Overcast
1:37 AM 30.2 °F 23.4 °F 28.4 °F 93% 29.48 in 10.0 mi South 6.9 mph - N/A   Overcast
1:51 AM 30.9 °F 24.3 °F 28.0 °F 89% 29.53 in 10.0 mi South 6.9 mph - N/A   Overcast
2:18 AM 30.2 °F 21.9 °F 28.4 °F 93% 29.48 in 10.0 mi SSW 9.2 mph 17.3 mph N/A   Overcast
2:51 AM 30.9 °F 23.5 °F 28.0 °F 89% 29.52 in 10.0 mi South 8.1 mph - N/A   Overcast
3:51 AM 30.9 °F 24.3 °F 28.0 °F 89% 29.51 in 10.0 mi South 6.9 mph - N/A   Overcast
4:51 AM 30.9 °F 27.5 °F 28.9 °F 92% 29.48 in 10.0 mi Variable 3.5 mph - 0.00 in   Overcast
5:51 AM 30.9 °F 22.8 °F 28.9 °F 92% 29.46 in 10.0 mi SSE 9.2 mph - N/A   Overcast
6:51 AM 30.0 °F 23.2 °F 28.9 °F 96% 29.39 in 10.0 mi NE 6.9 mph - N/A   Overcast
7:51 AM 30.2 °F - 28.4 °F 93% 29.32 in 3.0 mi Calm Calm - N/A Rain Light Freezing Rain
8:27 AM 32.0 °F 27.5 °F 30.2 °F 93% 29.31 in 5.0 mi South 4.6 mph - 0.03 in   Overcast
8:51 AM 32.0 °F 26.4 °F 30.0 °F 92% 29.34 in 8.0 mi SSW 5.8 mph - 0.04 in Rain Light Freezing Rain
8:56 AM 32.0 °F 24.8 °F 30.2 °F 93% 29.29 in 5.0 mi South 8.1 mph - N/A Rain Light Freezing Rain
9:01 AM 32.0 °F 24.8 °F 30.2 °F 93% 29.28 in 2.5 mi South 8.1 mph - 0.01 in Snow Light Snow
9:17 AM 32.0 °F 27.5 °F 30.2 °F 93% 29.27 in 9.0 mi South 4.6 mph - 0.02 in   Overcast
9:51 AM 32.0 °F - 30.9 °F 96% 29.29 in 9.0 mi Calm Calm - 0.03 in   Overcast
10:51 AM 34.0 °F 28.0 °F 30.0 °F 85% 29.21 in 10.0 mi South 6.9 mph - 0.00 in   Overcast
11:08 AM 33.8 °F 27.0 °F 30.2 °F 87% 29.14 in 10.0 mi SE 8.1 mph - N/A   Overcast
11:43 AM 33.8 °F 28.6 °F 30.2 °F 87% 29.10 in 1.8 mi SSW 5.8 mph - 0.01 in Snow Light Snow
11:51 AM 33.1 °F 27.7 °F 30.9 °F 92% 29.14 in 2.5 mi SW 5.8 mph - 0.01 in Snow Light Snow
11:58 AM 33.8 °F 28.6 °F 30.2 °F 87% 29.10 in 1.2 mi SSW 5.8 mph - 0.01 in Snow Light Snow
12:00 PM 33.8 °F 27.7 °F 30.2 °F 87% 29.09 in 0.8 mi SSW 6.9 mph - 0.01 in Snow Light Snow
12:10 PM 33.8 °F 27.7 °F 30.2 °F 87% 29.08 in 1.2 mi SSW 6.9 mph - 0.02 in Snow Light Snow
12:12 PM 33.8 °F 28.6 °F 30.2 °F 87% 29.08 in 2.0 mi SSW 5.8 mph - 0.02 in Snow Light Snow
12:14 PM 33.8 °F 27.7 °F 30.2 °F 87% 29.08 in 3.0 mi SSW 6.9 mph - 0.02 in Snow Light Snow
12:20 PM 33.8 °F 27.7 °F 30.2 °F 87% 29.08 in 1.8 mi South 6.9 mph - 0.02 in Snow Light Snow
12:29 PM 33.8 °F 29.6 °F 30.2 °F 87% 29.08 in 1.0 mi Variable 4.6 mph - 0.03 in Snow Light Snow
12:44 PM 33.8 °F 25.8 °F 30.2 °F 87% 29.07 in 1.0 mi South 10.4 mph - 0.03 in Snow Light Snow
12:48 PM 33.8 °F 25.8 °F 30.2 °F 87% 29.06 in 0.8 mi South 10.4 mph - 0.03 in Snow Light Snow
12:51 PM 33.1 °F 25.5 °F 30.9 °F 92% 29.10 in 1.0 mi South 9.2 mph - 0.03 in Snow Light Snow
12:54 PM 33.8 °F 27.7 °F 30.2 °F 87% 29.06 in 1.5 mi SSW 6.9 mph - 0.00 in Snow Light Snow
12:58 PM 33.8 °F 29.6 °F 30.2 °F 87% 29.06 in 3.0 mi Variable 4.6 mph - 0.00 in Snow Light Snow
1:14 PM 33.8 °F 27.7 °F 30.2 °F 87% 29.06 in 3.0 mi South 6.9 mph - 0.00 in Snow Light Snow
1:45 PM 33.8 °F 27.7 °F 30.2 °F 87% 29.07 in 1.8 mi SW 6.9 mph 17.3 mph 0.00 in Snow Light Snow
1:51 PM 34.0 °F 29.8 °F 30.9 °F 89% 29.11 in 1.2 mi Variable 4.6 mph 17.3 mph 0.00 in Snow Light Snow
1:56 PM 33.8 °F 27.0 °F 30.2 °F 87% 29.07 in 2.0 mi WSW 8.1 mph - 0.00 in Snow Light Snow
2:07 PM 33.8 °F 25.3 °F 26.6 °F 75% 29.08 in 7.0 mi WSW 11.5 mph 29.9 mph 0.01 in   Mostly Cloudy
2:15 PM 32.0 °F 22.1 °F 26.6 °F 80% 29.08 in 9.0 mi WSW 13.8 mph 24.2 mph 0.01 in   Mostly Cloudy
2:51 PM 30.9 °F 20.7 °F 24.1 °F 76% 29.15 in 10.0 mi WSW 13.8 mph 23.0 mph 0.01 in   Overcast
3:03 PM 30.2 °F 19.8 °F 23.0 °F 75% 29.13 in 9.0 mi SW 13.8 mph 26.5 mph N/A   Overcast
3:20 PM 28.4 °F 19.7 °F 21.2 °F 74% 29.15 in 10.0 mi WSW 9.2 mph 24.2 mph N/A   Overcast
3:51 PM 28.0 °F 17.5 °F 21.0 °F 75% 29.21 in 3.0 mi SW 12.7 mph 29.9 mph 0.00 in Snow Light Snow
3:57 PM 28.4 °F 18.5 °F 21.2 °F 74% 29.17 in 1.8 mi SSW 11.5 mph 24.2 mph 0.00 in Snow Light Snow
4:20 PM 26.6 °F 14.7 °F 19.4 °F 74% 29.19 in 1.2 mi WSW 15.0 mph 23.0 mph 0.00 in Snow Light Snow
4:29 PM 26.6 °F 13.8 °F 19.4 °F 74% 29.18 in 1.5 mi SW 17.3 mph 29.9 mph 0.00 in Snow Light Snow
4:38 PM 24.8 °F 11.5 °F 19.4 °F 80% 29.19 in 1.2 mi SW 17.3 mph 28.8 mph 0.00 in Snow Light Snow
4:47 PM 24.8 °F 12.9 °F 19.4 °F 80% 29.19 in 1.0 mi SW 13.8 mph 33.4 mph 0.00 in Snow Light Snow
4:51 PM 25.0 °F 13.1 °F 19.0 °F 78% 29.24 in 1.5 mi WSW 13.8 mph 33.4 mph 0.00 in Snow Light Snow
5:00 PM 24.8 °F 12.9 °F 19.4 °F 80% 29.20 in 2.5 mi SW 13.8 mph 26.5 mph 0.00 in Snow Light Snow
5:51 PM 24.1 °F 14.4 °F 19.0 °F 81% 29.28 in 2.0 mi SSW 9.2 mph 27.6 mph 0.00 in Snow Light Snow
6:00 PM 24.8 °F 13.4 °F 17.6 °F 74% 29.24 in 1.8 mi SSW 12.7 mph 28.8 mph 0.00 in Snow Light Snow
6:18 PM 24.8 °F 14.6 °F 17.6 °F 74% 29.24 in 2.5 mi SW 10.4 mph 24.2 mph 0.00 in Snow Light Snow
6:49 PM 24.8 °F 12.4 °F 17.6 °F 74% 29.26 in 3.0 mi SW 15.0 mph 24.2 mph 0.00 in Snow Light Snow
6:51 PM 24.1 °F 12.0 °F 17.1 °F 75% 29.31 in 3.0 mi SW 13.8 mph 24.2 mph 0.00 in Snow Light Snow
7:01 PM 24.8 °F 13.4 °F 17.6 °F 74% 29.27 in 2.0 mi SW 12.7 mph 24.2 mph 0.00 in Snow Light Snow
7:09 PM 24.8 °F 14.0 °F 17.6 °F 74% 29.28 in 1.2 mi WSW 11.5 mph 21.9 mph 0.00 in Snow Light Snow
7:16 PM 24.8 °F 15.3 °F 19.4 °F 80% 29.28 in 1.0 mi WSW 9.2 mph 21.9 mph 0.00 in Snow Light Snow
7:37 PM 23.0 °F 14.7 °F 19.4 °F 86% 29.30 in 0.8 mi WSW 6.9 mph 17.3 mph 0.00 in Snow Light Snow
7:51 PM 24.1 °F 13.7 °F 19.9 °F 84% 29.35 in 0.8 mi WSW 10.4 mph 19.6 mph 0.00 in Snow Light Snow
8:51 PM 25.0 °F 15.5 °F 21.9 °F 88% 29.40 in 0.5 mi SW 9.2 mph 18.4 mph 0.03 in Fog , Snow Snow
9:05 PM 24.8 °F 15.3 °F 21.2 °F 86% 29.37 in 1.2 mi WSW 9.2 mph - 0.01 in Snow Light Snow
9:16 PM 26.6 °F 17.5 °F 21.2 °F 80% 29.37 in 3.0 mi WSW 9.2 mph 17.3 mph 0.01 in Snow Light Snow
9:51 PM 27.0 °F 18.0 °F 21.9 °F 81% 29.44 in 5.0 mi West 9.2 mph - 0.01 in Snow Light Snow
10:51 PM 28.0 °F 18.6 °F 21.9 °F 78% 29.47 in 6.0 mi West 10.4 mph - 0.00 in Snow Light Snow
11:51 PM 28.0 °F 20.0 °F 21.9 °F 78% 29.50 in 6.0 mi WNW 8.1 mph - 0.00 in Snow Light Snow